Regional Weather Roundup
Issued by NWS

Home | Current Version | Previous Version | Text Only | Print | Product List | Glossary On
Versions: 1 2 3 4 5 6 7 8 9 10 11 12 13 14 15 16 17 18 19 20 21 22 23 24 25 26 27 28 29 30 31 32 33 34 35 36 37 38 39 40 41 42 43 44 45 46 47 48 49 50
000
ASHW40 PHFO 012143
RWRHI

WEATHER ROUNDUP FOR HAWAII
NATIONAL WEATHER SERVICE HONOLULU HI
1100 AM HST WED JUL 01 2015

THIS IS AN AUTOMATED REPORT THAT HAS NOT BEEN QUALITY CONTROLLED.

NOTE..."FAIR" INDICATES FEW OR NO CLOUDS BELOW 12,000 FEET WITH NO
SIGNIFICANT WEATHER AND/OR OBSTRUCTIONS TO VISIBILITY.

* - THESE SITES REPORT LIMITED FIELDS

HIZ001>004-012200-
KAUAI-NIIHAU-

CITY           SKY/WX    TMP DP  RH WIND       PRES   REMARKS
LIHUE APT      SUNNY     85  67  54 S16       29.91S
PORT ALLEN*    NOT AVBL
POIPU*           N/A     82 N/A N/A S9G16       N/A
PRINCEVILLE*     N/A     82 N/A N/A MISG        N/A
KOKOLE POINT*  NOT AVBL
MOLOAA DAIRY*  NOT AVBL
WAIMEA HTS*      N/A     88  70  55 SW7G14      N/A  HX  92
PUU OPAE*        N/A     79  63  57 S6G12       N/A
PUU LUA*       NOT AVBL
MAKAHA RIDGE*    N/A     81  63  54 SW5G10      N/A
$$

HIZ005>011-012200-
OAHU-

CITY           SKY/WX    TMP DP  RH WIND       PRES   REMARKS
HONOLULU       MOSUNNY   84  70  62 S10       29.91F
KALAELOA       SUNNY     82  71  69 SW10      29.92F
KANEOHE MCB    SUNNY     82  71  69 NE8       29.89F
WHEELER FIELD  FAIR      84  65  52 VRB2      29.91F
BELLOWS*         N/A    N/A N/A N/A NE7         N/A
KAHUKU*          N/A    N/A N/A N/A N2          N/A
WHEELER*       NOT AVBL
WAIANAE HARBOR NOT AVBL
DILLINGHAM*      N/A     93  72  49 MISG        N/A  HX 100
KAHUKU TRN*      N/A     70  52  52 N6G12       N/A
KAWAILOA*        N/A     86  68  54 SW3G9       N/A
KII*             N/A     82  73  74 NE8         N/A
MAKUA RANGE*     N/A     82  72  69 W3          N/A
OAHU FOREST NW   N/A     75  70  83 CALM        N/A
SCHOFIELD BRK*   N/A     63  48  59 MISG        N/A
SCHOFIELD S*   NOT AVBL
WAIANAE VLY*     N/A     91  68  46 MISG        N/A  HX  95
KUAOKALA*        N/A     81  70  69 SW7         N/A
HONOULIUULI*   NOT AVBL
MOKUOLOE IS*     N/A    N/A N/A N/A MISG        N/A
PALEHUA*         N/A     79  64  61 W5G12       N/A
WAIAWA PHB*    NOT AVBL
$$

HIZ012>013-012200-
MOLOKAI-

CITY           SKY/WX    TMP DP  RH WIND       PRES   REMARKS
MOLOKAI AIRPT  MOSUNNY   84  69  60 NW12      29.93F
KALAUPAPA      NOT AVBL
MAKAPULAPAI*     N/A     82  72  69 N5          N/A
MOLOKAI 1*       N/A     81  68  65 SE3G10      N/A
PUU ALII*        N/A     67  64  89 NW1         N/A
$$

HIZ016-012200-
KAHOOLAWE-

CITY           SKY/WX    TMP DP  RH WIND       PRES   REMARKS
KAHOOLAWE*     NOT AVBL
HAKIOAWA*        N/A     82  69  64 MISG      30.35F
HONOKANAIA*      N/A     83  74  73 E3G12     29.94S
KANELOA*         N/A     79  70  73 E12         N/A
KEALIALALO*      N/A     81  72  74 NW5G13    29.93S
LUA MAKIKA*    NOT AVBL
$$

HIZ014>015-012200-
LANAI-

CITY           SKY/WX    TMP DP  RH WIND       PRES   REMARKS
LANAI CITY     CLOUDY    77  70  78 W7        29.98F
LANAI 1*         N/A     72  64  78 S5G12       N/A
$$

HIZ017>028-012200-
MAUI-

CITY           SKY/WX    TMP DP  RH WIND       PRES   REMARKS
KAHULUI        MOSUNNY   88  72  58 NE10      29.92F HX  94
KAPALUA-W MAUI MOSUNNY   88  70  55 NW14      29.93F HX  92
HANA AIRPORT   PTSUNNY   84  73  70 S8        29.94F HX  91
HANA*            N/A     84 N/A N/A E8G15       N/A
HALEAKALA SUMM   N/A     59  34  38 S5G18       N/A
MAALAEA BAY*   NOT AVBL
HALEAKALA*     NOT AVBL
KAUPO GAP*       N/A     73  64  73 SE6G13      N/A
KULA 1*          N/A     64  57  79 W6G12       N/A
$$

HIZ023>026-012200-
BIG ISLAND OF HAWAII COAST AND LOWER SLOPES-

CITY           SKY/WX    TMP DP  RH WIND       PRES   REMARKS
KAILUA KONA    SUNNY     85  72  65 W7        29.90S HX  91
HILO           PTSUNNY   83  71  67 E7        29.93S
HONOKAA*       NOT AVBL
KAWAIHAE MWT*    N/A     91 N/A N/A W6          N/A
KAWAIHAE*        N/A     81 N/A N/A W8          N/A
SOUTH POINT*     N/A     82 N/A N/A E14G23      N/A
UPOLU AIRPORT*   N/A    N/A N/A N/A NE15        N/A
KAMUELA*       MOCLDY    82  66  57 W8        30.03S
HAKALAU*         N/A     69  60  73 E7G14       N/A
KALOKO-HONOKO*   N/A     86  72  62 SW6G12    29.89  HX  92
PALI 2*          N/A     70  66  88 SE5G12      N/A
KEALAKOMO*       N/A     88  73  62 E12         N/A  HX  96
KAUPULEHU*       N/A     86  72  62 N5G10       N/A  HX  92
KAPAPALA*        N/A     79  70  73 E5          N/A
LOWER KAHUKU*    N/A     75  64  69 E3G12       N/A
PUHE CS*         N/A     84  72  65 W3          N/A
PUHO CS*         N/A     84  69  60 W3          N/A
PTA KEAMUKU*     N/A     72  64  78 CALM        N/A
WAIKOLOA*        N/A     84  70  61 NW8G15      N/A
$$

HIZ027>028-012200-
BIG ISLAND OF HAWAII INTERIOR AND SUMMMITS-

CITY           SKY/WX    TMP DP  RH WIND       PRES   REMARKS
BRADSHAW FIELD SUNNY     72  58  60 W8G16     30.27S
MK VISITOR CEN   N/A      0   0 100 MISG        N/A
MAUNA KEA*       N/A     46  32  57 N8          N/A
MAUNA LOA*       N/A     52  43  71 MISG        N/A
MAUNA LOA 1*   NOT AVBL
PTA KIPUKA*      N/A     72  59  64 NW7         N/A
PTA RANGE 17*    N/A     54  43  66 NW12        N/A
PTA WEST*        N/A     79  68  69 NW8         N/A
NENE CABIN*      N/A     66  48  52 SE6G12      N/A
AHUMOA*          N/A     64  61  90 N7          N/A
PTA PORTABLE*  NOT AVBL
PUU MALI*        N/A     61  59  94 NE5         N/A
$$

HIC003-012200-
NORTHWEST ISLANDS-

CITY           SKY/WX    TMP DP  RH WIND       PRES   REMARKS
MIDWAY ISLAND  MOSUNNY   82  72  69 N10G18    30.07S
MIDWAY NOS*    NOT AVBL
FRENCH FRIGATE NOT AVBL
$$

PHZ110>124-180-012200-
BUOY REPORTS

STATION/POSITION TIME  TEMP    WIND        PRES    WAVE   SWELL
                       AIR SEA DIR/SP/G            HT/PER HT/DIR
                 (UTC) (F)     (DEG/KT/KT) (MB)    (FT/S) (FT/D)
BUOY 51001       NOT AVBL
BUOY 51101       2100   76 80  300/ 12/ 14 1011.0R   6/ 7   5/300
BUOY 51100       NOT AVBL
BUOY 51002       2100   80 81   50/ 14/ 16 1011.8S   7/14   7/180
BUOY 51003       2100   80 82  100/  4/  6 1013.2F   6/ 9   5
BUOY 51004       2042   80 80   80/ 14/ 17 1012.4F   8/ 9   8/ 90
BARBERS PT BUOY  NOT AVBL
WAIMEA BAY BUOY  2100      81                N/A     2/ 8
KAILUA BAY BUOY  2100      81                N/A     4/15   2/140
LANAI BUOY       NOT AVBL
BARBERS PT 2     2100      81                N/A     4/15   3/170
PAUWELA MAUI     2100      81                N/A     4/ 8
HILO             2100      80                N/A     6/ 9   2/130
KANEOHE BAY BUOY 2100      80                N/A     3/ 8   2/ 80
HANALEI KAUAI    2100      81                N/A     3/ 8   2/ 90
KAHULUI HARBOR   2100   79 81   30/  8/  9 1012.9F
HONOLULU HARBOR  2100   80 81  210/  7/  9 1013.1F
KILO NALU        NOT AVBL
HILO HARBOR      2100   87 78   70/  3/  9 1012.8F
MOKUOLOE         2100      83              1013.2S
NAWILIWILI       2100   83 80  210/  7/ 10 1012.3F
WHOTS BUOY       NOT AVBL
BUOY 51028       NOT AVBL
$$

......................KEY........................................
  SKY/WX - SKY CONDITIONS/PRESENT WEATHER
  TMP    - TEMPERATURE IN FAHRENHEIT
  DWPT   - DEWPOINT IN FAHRENHEIT
  RH     - RELATIVE HUMIDITY IN PERCENT
  WIND   - DIRECTION AND SPEED /MPH FOR ISLANDS...KTS FOR BUOYS/
  PRES   - MEAN SEA LEVEL PRESSURE IN INCHES OF HG
  VSB    - VISIBILITY IN MILES
  HX     - HEAT INDEX
  WCI    - WIND CHILL INDEX
  VRB    - VARIABLE WIND DIRECTION
  N/A    - NOT AVAILABLE


USA.gov is the U.S. government's official web portal to all federal, state and local government web resources and services.